Hourly Weather Kismarja

Today, 29 July, Thursday

Time Temperature Precipitation Wind Pressure Humidity
00:00 +26°C° 0 mm 3 mps 749 mmHg 45%
01:00 +26°C° 0 mm 3 mps 749 mmHg 47%
02:00 +25°C° 0 mm 3 mps 749 mmHg 51%
03:00 +24°C° 0 mm 3 mps 749 mmHg 55%
04:00 +24°C° 0 mm 3 mps 749 mmHg 60%
05:00 +25°C° 0 mm 4 mps 750 mmHg 59%
06:00 +26°C° 0 mm 4 mps 750 mmHg 58%
07:00 +27°C° 0 mm 5 mps 750 mmHg 58%
08:00 +29°C° 0 mm 5 mps 750 mmHg 52%
09:00 +32°C° 0 mm 5 mps 750 mmHg 46%
10:00 +33°C° 0 mm 5 mps 750 mmHg 40%
11:00 +34°C° 0 mm 5 mps 750 mmHg 37%
12:00 +35°C° 0 mm 5 mps 750 mmHg 33%
13:00 +36°C° 0 mm 5 mps 750 mmHg 30%
14:00 +36°C° 0 mm 5 mps 750 mmHg 27%
15:00 +36°C° 0 mm 5 mps 749 mmHg 25%
16:00 +37°C° 0 mm 5 mps 749 mmHg 22%
17:00 +34°C° 0 mm 5 mps 749 mmHg 25%
18:00 +32°C° 0 mm 4 mps 749 mmHg 27%
19:00 +29°C° 0 mm 3 mps 749 mmHg 30%
20:00 +27°C° 0 mm 3 mps 750 mmHg 37%
21:00 +25°C° 0 mm 2 mps 750 mmHg 43%
22:00 +24°C° 0 mm 2 mps 750 mmHg 50%
23:00 +23°C° 0 mm 2 mps 750 mmHg 55%

Tomorrow, 30 July, Friday

Time Temperature Precipitation Wind Pressure Humidity
00:00 +23°C° 0 mm 2 mps 750 mmHg 60%
01:00 +22°C° 0 mm 1 mps 750 mmHg 64%
02:00 +21°C° 0 mm 2 mps 750 mmHg 67%
03:00 +21°C° 0 mm 2 mps 750 mmHg 69%
04:00 +20°C° 0 mm 2 mps 750 mmHg 71%
05:00 +23°C° 0 mm 2 mps 750 mmHg 66%
06:00 +25°C° 0 mm 2 mps 750 mmHg 60%
07:00 +27°C° 0 mm 2 mps 750 mmHg 54%
08:00 +29°C° 0 mm 2 mps 750 mmHg 47%
09:00 +31°C° 0 mm 2 mps 750 mmHg 40%
10:00 +35°C° 0 mm 2 mps 750 mmHg 33%
11:00 +36°C° 0 mm 2 mps 750 mmHg 30%
12:00 +36°C° 0 mm 2 mps 749 mmHg 26%
13:00 +37°C° 0 mm 2 mps 749 mmHg 23%
14:00 +38°C° 0 mm 2 mps 748 mmHg 23%
15:00 +38°C° 0 mm 2 mps 748 mmHg 22%
16:00 +38°C° 0 mm 3 mps 748 mmHg 21%
17:00 +36°C° 0 mm 3 mps 747 mmHg 26%
18:00 +33°C° 0 mm 3 mps 747 mmHg 30%
19:00 +30°C° 0 mm 3 mps 747 mmHg 35%
20:00 +30°C° 0 mm 3 mps 747 mmHg 36%
21:00 +29°C° 0 mm 3 mps 747 mmHg 38%
22:00 +28°C° 0 mm 3 mps 747 mmHg 40%
23:00 +27°C° 0 mm 3 mps 747 mmHg 41%

Day after tomorrow, 31 July, Saturday

Time Temperature Precipitation Wind Pressure Humidity
00:00 +27°C° 0 mm 2 mps 747 mmHg 43%
01:00 +26°C° 0 mm 2 mps 747 mmHg 44%
02:00 +26°C° 0 mm 2 mps 747 mmHg 45%
03:00 +25°C° 0 mm 1 mps 747 mmHg 47%
04:00 +25°C° 0 mm 1 mps 747 mmHg 48%
05:00 +26°C° 0 mm 1 mps 747 mmHg 45%
06:00 +28°C° 0 mm 2 mps 747 mmHg 42%
07:00 +30°C° 0 mm 2 mps 747 mmHg 39%
08:00 +33°C° 0.1 mm 3 mps 747 mmHg 35%
09:00 +35°C° 0.1 mm 4 mps 747 mmHg 32%
10:00 +37°C° 0.1 mm 4 mps 747 mmHg 28%
11:00 +39°C° 0 mm 5 mps 747 mmHg 26%
12:00 +40°C° 0 mm 5 mps 746 mmHg 23%
13:00 +42°C° 0 mm 6 mps 746 mmHg 21%
14:00 +41°C° 0 mm 7 mps 745 mmHg 21%
15:00 +41°C° 0 mm 7 mps 745 mmHg 21%
16:00 +41°C° 0 mm 8 mps 745 mmHg 22%
17:00 +38°C° 0 mm 7 mps 745 mmHg 27%
18:00 +34°C° 0 mm 7 mps 746 mmHg 33%
19:00 +32°C° 0 mm 6 mps 746 mmHg 39%
20:00 +28°C° 0 mm 5 mps 747 mmHg 48%
21:00 +26°C° 0 mm 4 mps 748 mmHg 57%
22:00 +24°C° 0 mm 3 mps 748 mmHg 66%
23:00 +22°C° 0 mm 3 mps 748 mmHg 70%

1 August, Sunday

Time Temperature Precipitation Wind Pressure Humidity
00:00 +21°C° 0 mm 2 mps 748 mmHg 75%
01:00 +20°C° 0 mm 2 mps 748 mmHg 79%
02:00 +20°C° 0 mm 2 mps 748 mmHg 82%
03:00 +19°C° 0 mm 2 mps 748 mmHg 85%
04:00 +19°C° 0 mm 2 mps 748 mmHg 88%
05:00 +21°C° 0 mm 2 mps 748 mmHg 79%
06:00 +24°C° 0 mm 2 mps 748 mmHg 71%
07:00 +26°C° 0 mm 2 mps 748 mmHg 62%
08:00 +29°C° 0 mm 2 mps 748 mmHg 53%
09:00 +33°C° 0 mm 3 mps 747 mmHg 43%
10:00 +36°C° 0 mm 3 mps 747 mmHg 33%
11:00 +38°C° 0 mm 4 mps 746 mmHg 29%
12:00 +40°C° 0 mm 5 mps 746 mmHg 24%
13:00 +42°C° 0 mm 6 mps 745 mmHg 19%
14:00 +39°C° 0.5 mm 5 mps 745 mmHg 27%
15:00 +36°C° 0.5 mm 4 mps 745 mmHg 35%
16:00 +33°C° 0.5 mm 3 mps 745 mmHg 43%
17:00 +29°C° 0.6 mm 4 mps 745 mmHg 55%
18:00 +26°C° 0.6 mm 5 mps 744 mmHg 68%
19:00 +22°C° 0.6 mm 6 mps 744 mmHg 80%
20:00 +22°C° 0 mm 5 mps 744 mmHg 79%
21:00 +22°C° 0 mm 4 mps 745 mmHg 78%
22:00 +22°C° 0 mm 3 mps 745 mmHg 77%
23:00 +23°C° 0.1 mm 2 mps 745 mmHg 77%

2 August, Monday

Time Temperature Precipitation Wind Pressure Humidity
00:00 +23°C° 0.1 mm 2 mps 745 mmHg 78%
01:00 +21°C° 0.1 mm 2 mps 746 mmHg 78%
02:00 +21°C° 0.1 mm 2 mps 746 mmHg 83%
03:00 +20°C° 0.1 mm 3 mps 746 mmHg 87%
04:00 +19°C° 0.1 mm 3 mps 746 mmHg 92%
05:00 +19°C° 0 mm 3 mps 747 mmHg 87%
06:00 +20°C° 0 mm 4 mps 747 mmHg 82%
07:00 +21°C° 0 mm 4 mps 748 mmHg 78%
08:00 +23°C° 0 mm 5 mps 748 mmHg 65%
09:00 +27°C° 0 mm 5 mps 748 mmHg 51%
10:00 +29°C° 0 mm 5 mps 748 mmHg 38%
11:00 +30°C° 0 mm 6 mps 748 mmHg 34%
12:00 +32°C° 0 mm 6 mps 748 mmHg 31%
13:00 +33°C° 0 mm 7 mps 748 mmHg 27%
14:00 +32°C° 0 mm 7 mps 749 mmHg 31%
15:00 +29°C° 0 mm 7 mps 749 mmHg 35%
16:00 +28°C° 0 mm 7 mps 749 mmHg 40%
17:00 +26°C° 0 mm 6 mps 750 mmHg 46%
18:00 +23°C° 0 mm 5 mps 750 mmHg 52%
19:00 +20°C° 0 mm 4 mps 751 mmHg 59%
20:00 +19°C° 0 mm 4 mps 751 mmHg 63%
21:00 +18°C° 0 mm 3 mps 752 mmHg 68%
22:00 +17°C° 0 mm 2 mps 752 mmHg 72%
23:00 +16°C° 0 mm 2 mps 752 mmHg 72%

3 August, Tuesday

Time Temperature Precipitation Wind Pressure Humidity
00:00 +16°C° 0 mm 2 mps 752 mmHg 73%
01:00 +16°C° 0 mm 2 mps 753 mmHg 73%
02:00 +16°C° 0 mm 2 mps 753 mmHg 74%
03:00 +15°C° 0 mm 2 mps 753 mmHg 74%
04:00 +15°C° 0 mm 1 mps 753 mmHg 75%
05:00 +18°C° 0 mm 1 mps 753 mmHg 67%
06:00 +20°C° 0 mm 1 mps 754 mmHg 60%
07:00 +22°C° 0 mm 1 mps 754 mmHg 52%
08:00 +24°C° 0 mm 1 mps 754 mmHg 47%
09:00 +26°C° 0 mm 1 mps 754 mmHg 41%
10:00 +28°C° 0 mm 1 mps 754 mmHg 36%
11:00 +29°C° 0 mm 1 mps 753 mmHg 33%
12:00 +30°C° 0 mm 1 mps 753 mmHg 29%
13:00 +32°C° 0 mm 1 mps 753 mmHg 26%
14:00 +32°C° 0 mm 1 mps 752 mmHg 25%
15:00 +32°C° 0 mm 1 mps 752 mmHg 24%
16:00 +32°C° 0 mm 1 mps 751 mmHg 23%
17:00 +30°C° 0 mm 2 mps 751 mmHg 27%
18:00 +29°C° 0 mm 2 mps 751 mmHg 31%
19:00 +27°C° 0 mm 3 mps 751 mmHg 35%
20:00 +25°C° 0 mm 3 mps 751 mmHg 38%
21:00 +24°C° 0 mm 3 mps 751 mmHg 41%
22:00 +22°C° 0 mm 3 mps 751 mmHg 45%
23:00 +22°C° 0 mm 3 mps 751 mmHg 46%
Show more